CZ-6A DEB, 60856

Orbit data source: Space-Track

CZ-6A DEB, 60856 is space debris in LEO originally from a launch on Tue, 06 Aug 2024 UTC launched from the Taiyaun Space Center, China (TSC). Debris objects in space refer to the collection of defunct objects orbiting the Earth. Examples of debris include non-operational satellites, rocket bodies, and fragments generated from explosions, collisions, or faulty payload assembly.

Loading next visibility...
Identifier
60856, 2024-140JK
Orbit
LEO
Country
Flag of CNCN / PRC
Related business
Manufacturer
SAST
Mission
Spacecraft
Bus & Motor
Unknown
Mass
Unknown
Launch date (UTC)
2024-08-06 (2 years ago)
Launch vehicle
Unknown
Launch site
Taiyaun Space Center, China (TSC)
Object type
Payload
Rocket body
Debris
Shape & HBR
Unknown shape, 0.1 m
Radar Cross Section
Medium (>0.1 m² and <1 m²)

Expand to show TLE details & history
Last TLE update: 12 hours ago

TLE from 12 hours ago
0 CZ-6A DEB
1 60856U 24140JK  26171.36685811  .00000083  00000-0  54769-4 0  9997
2 60856  89.1485 289.8224 0203901 300.2145  57.8972 13.84946204 93413
Epoch: 2026-06-20T08:48Z
TLE epoch observation values (Epoch: 2026-06-20T08:48:16.540Z)
Latitude
-0.00003°
Longitude
-110.82902°
Altitude
872.236 km
Speed
7.455 km/s
True Right ascension
19h 19m 17s
True Declination
0° 00' 00"
Sunlit
Object was in full shadow at epoch
Visualization orbit readout
Latitude
Unknown
Longitude
Unknown
Altitude
Unknown
Speed
Unknown
Apparent Right ascension
Unknown
Apparent Declination
Unknown
Sunlit
N/A
Visualization observer readout
Local Sidereal Time
07:21:46
Azimuth
Unknown
Elevation
Unknown
Doppler factor
Unknown
Orbital elements
Apogee altitude
1,092.681 km
Perigee altitude
794.108 km
Semi-major axis
7,321.532 km
Eccentricity
0.02039
Inclination
89.1485°
RAAN
289.8224°
Arg. of periapsis
300.2145°
True anomaly
59.90322°
Mean anomaly
57.8972°
Eccentric anomaly
58.89752°
Mean motion
3.4645 °/min
Orbital period
103.91 mins
BSTAR
0.000054769
Loading maneuver chart data...
Computing Atmospheric mass density...
Loading historical data...
Loading historical data...
Loading historical data...
Loading historical data...
Loading historical data...
Loading historical data...
Loading historical data...

Documentation

Showing up to 5 results
|